Probability
0 0 0 0 0 0 0 0 0 0 0 0 0 0 0 0 0 0 0 0 3 6 16 26 42 29 29 26 29 29 26 29 32 23 23 32 35 26 26 32 26 23 23 23 16 19 16 13 10
0 0 0 0 0 0 0 0 0 0 0 0 0 0 0 0 0 0 0 0 3 6 16 23 32 32 29 26 26 29 26 26 26 29 23 19 19 23 26 29 23 19 19 19 16 10 13 13 10
0 0 0 0 0 0 0 0 0 0 0 0 0 0 0 0 0 0 3 3 6 10 16 23 29 29 29 29 23 23 23 23 26 26 23 23 23 19 19 26 26 19 19 19 19 10 10 10 6
0 0 0 0 0 0 0 0 0 0 0 0 0 0 0 0 0 3 3 3 10 16 19 26 26 23 26 26 23 16 19 23 23 23 23 23 23 19 13 23 26 19 16 10 16 16 10 6 6
0 0 0 0 0 0 0 0 0 0 0 0 0 0 0 0 0 3 3 10 10 19 23 23 26 23 26 26 23 23 16 19 23 19 19 23 23 19 16 16 16 19 19 13 13 16 10 6 6
0 0 0 0 0 0 0 0 0 0 0 0 0 0 0 0 3 6 6 10 19 19 23 19 26 23 23 26 23 26 19 19 23 19 16 16 19 19 13 16 13 13 16 13 6 16 10 6 6
0 0 0 0 0 0 0 0 0 0 0 0 0 0 0 0 3 6 13 10 13 16 19 19 26 23 23 23 26 23 23 13 16 23 23 19 23 26 16 16 13 13 16 16 13 13 6 6 6
0 0 0 0 0 0 0 0 0 0 0 0 0 0 0 0 3 6 13 13 10 16 19 23 23 23 19 23 19 16 16 13 13 10 10 3 13 13 16 13 16 16 23 23 13 10 6 6 6
0 0 0 0 0 0 0 0 0 0 0 0 0 0 0 0 3 3 13 13 16 13 13 16 16 16 16 16 13 13 10 6 3 3 0 0 3 10 3 3 3 13 19 23 10 6 10 6 3
0 0 0 0 0 0 0 0 0 0 0 0 0 0 0 0 3 3 3 3 10 16 16 13 16 16 13 13 10 13 6 6 6 3 3 0 3 3 0 0 0 0 3 0 6 10 6 0 0
0 0 0 0 0 0 0 0 0 0 0 0 0 0 0 0 3 3 3 3 6 6 6 6 6 13 13 13 13 10 10 10 6 6 6 0 3 0 0 3 3 0 0 3 0 0 3 0 0
0 0 0 0 0 0 0 0 0 0 0 0 0 0 0 0 3 3 3 3 3 6 3 6 3 10 10 13 6 6 10 10 6 6 3 6 6 0 0 3 6 6 3 3 0 3 0 0 0
0 0 0 0 0 0 0 0 0 0 0 0 0 0 0 0 3 3 3 0 0 3 6 0 3 6 3 6 6 3 6 6 6 6 3 3 6 3 0 3 3 6 10 10 3 0 3 3 0
0 0 0 0 0 0 0 0 0 0 0 0 0 0 0 0 0 0 3 0 0 0 0 0 0 0 6 6 3 3 6 6 3 3 0 0 0 0 0 0 0 0 6 6 3 0 0 3 3
0 0 0 0 0 0 0 0 0 0 0 0 0 0 0 0 0 0 0 0 0 0 0 0 0 0 0 3 3 3 3 3 3 3 0 0 0 0 0 0 0 0 0 0 3 0 0 0 0
0 0 0 0 0 0 0 0 0 0 0 0 0 0 0 0 0 0 0 0 0 0 0 0 3 0 0 3 3 3 3 3 3 3 0 0 0 0 0 0 0 0 0 0 0 0 0 0 0
0 0 0 0 0 0 0 0 0 0 0 0 0 0 0 0 0 0 0 0 0 0 0 0 3 3 3 3 3 3 0 3 3 3 0 0 0 0 0 0 0 0 0 0 0 0 0 0 0
0 0 0 0 0 0 0 0 0 0 0 0 0 0 0 0 0 0 0 0 0 0 0 0 0 3 3 0 0 0 0 0 3 3 0 0 0 0 0 0 0 0 0 0 0 0 0 0 0
0 0 0 0 0 0 0 0 0 0 0 0 0 0 0 0 0 0 0 0 0 0 0 0 0 0 0 0 0 0 0 0 0 3 0 0 0 0 0 0 0 0 0 0 0 0 0 0 0
0 0 0 0 0 0 0 0 0 0 0 0 0 0 0 0 0 0 0 0 0 0 0 0 0 0 0 0 0 0 0 0 0 0 0 0 0 0 0 0 0 0 0 0 0 0 0 0 0
0 0 0 0 0 0 0 0 0 0 0 0 0 0 0 0 0 0 0 0 0 0 0 0 0 0 0 0 0 0 0 0 0 0 0 0 0 0 0 0 0 0 0 0 0 0 0 0 0
0 0 0 0 0 0 0 0 0 0 0 0 0 0 0 0 0 0 0 0 0 0 0 0 0 0 0 0 0 0 0 0 0 0 0 0 0 0 0 0 0 0 0 0 0 0 0 0 0
0 0 0 0 0 0 0 0 0 0 0 0 0 0 0 0 0 0 0 0 0 0 0 0 0 0 0 0 0 0 0 0 0 0 0 0 0 0 0 0 0 0 0 0 0 0 0 0 0
0 0 0 0 0 0 0 0 0 0 0 0 0 0 0 0 0 0 0 0 0 0 0 0 0 0 0 0 0 0 0 0 0 0 0 0 0 0 0 0 0 0 0 0 0 0 0 0 0
0 0 0 0 0 0 0 0 0 0 0 0 0 0 0 0 0 0 0 0 0 0 0 0 0 0 0 0 0 0 0 0 0 0 0 0 0 0 0 0 0 0 0 0 0 0 0 0 0
0 0 0 0 0 0 0 0 0 0 0 0 0 0 0 0 0 0 0 0 0 0 0 0 0 0 0 0 0 0 0 0 0 0 0 0 0 0 0 0 0 0 0 0 0 0 0 0 0
0 0 0 0 0 0 0 0 0 0 0 0 0 0 0 0 0 0 0 0 0 0 0 0 0 0 0 0 0 0 0 0 0 0 0 0 0 0 0 0 0 0 0 0 0 0 0 0 0
0 0 0 0 0 0 0 0 0 0 0 0 0 0 0 0 0 0 0 0 0 0 0 0 0 0 0 0 0 0 0 0 0 0 0 0 0 0 0 0 0 0 0 0 0 0 0 0 0
0 0 0 0 0 0 0 0 0 0 0 0 0 0 0 0 0 0 0 0 0 0 0 0 0 0 0 0 0 0 0 0 0 0 0 0 0 0 0 0 0 0 0 0 0 0 0 0 0
0 0 0 0 0 0 0 0 0 0 0 0 0 0 0 0 0 0 0 0 0 0 0 0 0 0 0 0 0 0 0 0 0 0 0 0 0 0 0 0 0 0 0 0 0 0 0 0 0
Height
5832 5832 5833 5834 5834 5835 5834 5835 5835 5836 5836 5836 5836 5836 5837 5837 5838 5840 5838 5837 5837 5837 5837 5837 5837 5838 5838 5838 5839 5839 5840 5840 5841 5841 5842 5842 5843 5844 5844 5845 5846 5846 5847 5847 5848 5849 5849 5850 5851
5829 5829 5830 5831 5831 5831 5832 5832 5832 5832 5832 5832 5832 5832 5833 5833 5833 5834 5833 5833 5833 5833 5833 5834 5834 5834 5835 5835 5836 5836 5837 5837 5838 5838 5839 5839 5840 5841 5841 5842 5843 5844 5844 5845 5846 5846 5847 5848 5849
5825 5826 5827 5827 5827 5828 5828 5828 5828 5828 5828 5828 5828 5828 5829 5830 5830 5830 5830 5830 5830 5830 5830 5830 5830 5831 5831 5831 5832 5833 5833 5834 5834 5835 5836 5836 5837 5838 5838 5839 5840 5841 5841 5842 5843 5844 5844 5845 5846
5822 5823 5823 5824 5824 5824 5824 5824 5824 5824 5824 5824 5824 5825 5825 5826 5825 5826 5825 5825 5826 5826 5826 5826 5826 5827 5827 5828 5828 5829 5829 5830 5830 5831 5832 5833 5833 5834 5835 5836 5837 5837 5838 5839 5840 5841 5841 5842 5843
5818 5819 5819 5819 5820 5820 5820 5820 5820 5820 5820 5820 5820 5820 5820 5821 5821 5821 5821 5821 5821 5821 5821 5822 5822 5823 5823 5824 5824 5825 5825 5826 5826 5827 5828 5829 5829 5830 5831 5832 5833 5834 5835 5835 5836 5837 5838 5839 5840
5815 5815 5816 5815 5816 5816 5816 5816 5815 5815 5816 5816 5816 5816 5816 5816 5816 5816 5817 5817 5817 5817 5817 5817 5818 5818 5819 5819 5820 5820 5821 5822 5822 5823 5823 5824 5825 5826 5827 5828 5829 5830 5831 5832 5833 5834 5835 5836 5837
5812 5811 5811 5812 5812 5812 5812 5811 5811 5811 5811 5811 5811 5811 5811 5811 5811 5812 5812 5812 5812 5812 5813 5813 5813 5814 5814 5815 5815 5816 5817 5817 5817 5818 5819 5820 5821 5821 5822 5823 5825 5826 5827 5828 5829 5830 5831 5831 5832
5807 5808 5807 5807 5807 5808 5807 5806 5806 5806 5806 5806 5806 5806 5806 5807 5806 5806 5807 5807 5807 5808 5808 5808 5808 5809 5809 5810 5810 5811 5812 5812 5813 5813 5814 5815 5816 5817 5817 5819 5820 5821 5822 5823 5824 5825 5826 5827 5828
5802 5804 5803 5803 5803 5803 5802 5801 5801 5801 5801 5801 5800 5801 5801 5801 5801 5801 5802 5802 5802 5803 5803 5803 5803 5804 5804 5805 5805 5806 5806 5807 5807 5808 5809 5810 5810 5811 5812 5814 5815 5816 5817 5818 5819 5820 5821 5822 5823
5798 5798 5799 5798 5798 5797 5796 5796 5796 5796 5796 5795 5795 5795 5795 5795 5796 5796 5796 5797 5797 5797 5798 5798 5798 5798 5799 5799 5800 5800 5801 5801 5802 5802 5803 5804 5805 5806 5807 5808 5809 5811 5812 5813 5814 5815 5816 5817 5818
5793 5794 5793 5792 5792 5791 5791 5791 5790 5790 5790 5790 5789 5789 5789 5790 5790 5790 5791 5791 5791 5792 5792 5792 5792 5793 5793 5794 5794 5795 5795 5796 5797 5797 5798 5799 5799 5800 5801 5803 5804 5805 5806 5807 5808 5809 5810 5811 5812
5788 5788 5787 5787 5786 5786 5785 5785 5784 5784 5784 5783 5783 5783 5783 5784 5784 5784 5784 5785 5785 5786 5786 5786 5786 5787 5787 5788 5788 5789 5790 5790 5791 5791 5792 5793 5794 5795 5796 5797 5798 5799 5800 5801 5802 5803 5804 5805 5806
5783 5782 5781 5781 5780 5779 5779 5778 5778 5778 5777 5777 5777 5777 5777 5777 5777 5778 5778 5778 5779 5779 5780 5780 5780 5780 5781 5782 5782 5783 5784 5784 5785 5785 5786 5787 5788 5789 5790 5791 5792 5793 5794 5795 5796 5797 5798 5799 5800
5777 5776 5775 5774 5773 5773 5772 5772 5772 5772 5771 5771 5771 5771 5771 5771 5771 5771 5772 5772 5772 5773 5773 5773 5773 5774 5774 5775 5776 5777 5778 5778 5779 5779 5780 5781 5782 5783 5784 5784 5786 5786 5787 5788 5790 5791 5791 5792 5793
5770 5770 5769 5768 5767 5766 5765 5765 5765 5764 5763 5764 5764 5764 5764 5764 5764 5764 5765 5765 5765 5766 5766 5766 5766 5767 5768 5768 5769 5770 5771 5772 5773 5773 5774 5775 5776 5776 5777 5778 5779 5780 5781 5782 5783 5784 5785 5786 5787
5763 5763 5762 5761 5760 5758 5759 5759 5758 5756 5756 5756 5756 5756 5756 5756 5756 5756 5757 5757 5757 5758 5758 5758 5759 5760 5760 5761 5762 5763 5764 5765 5766 5766 5767 5768 5769 5770 5771 5771 5772 5773 5774 5775 5776 5777 5778 5779 5780
5756 5755 5754 5753 5752 5750 5750 5750 5750 5748 5748 5748 5748 5748 5748 5748 5748 5748 5748 5749 5749 5750 5750 5751 5752 5752 5753 5754 5755 5756 5757 5758 5758 5759 5760 5761 5762 5763 5764 5765 5765 5766 5767 5768 5769 5770 5771 5772 5773
5748 5747 5745 5744 5743 5742 5741 5741 5741 5740 5739 5739 5739 5740 5740 5740 5739 5739 5740 5740 5741 5741 5742 5743 5744 5745 5746 5747 5748 5749 5750 5751 5751 5752 5753 5754 5755 5756 5757 5757 5758 5759 5760 5761 5762 5763 5764 5764 5765
5738 5737 5736 5735 5733 5732 5732 5732 5732 5730 5730 5730 5730 5730 5730 5730 5730 5730 5731 5731 5732 5733 5734 5735 5736 5737 5738 5739 5741 5741 5743 5743 5744 5745 5746 5747 5748 5748 5749 5750 5751 5752 5753 5753 5754 5755 5756 5756 5757
5728 5727 5726 5725 5723 5722 5722 5722 5721 5720 5720 5720 5720 5720 5720 5721 5721 5721 5721 5722 5723 5724 5725 5726 5727 5728 5730 5731 5732 5734 5735 5736 5737 5737 5738 5739 5740 5741 5741 5742 5743 5744 5745 5746 5746 5747 5748 5748 5749
5718 5717 5716 5714 5712 5711 5711 5711 5712 5710 5710 5710 5710 5710 5710 5710 5710 5711 5712 5713 5713 5714 5715 5717 5718 5720 5721 5722 5724 5725 5726 5728 5729 5730 5731 5731 5732 5733 5734 5734 5735 5736 5737 5737 5738 5739 5740 5740 5741
5708 5707 5705 5703 5702 5701 5701 5698 5702 5700 5699 5699 5699 5699 5699 5699 5700 5701 5702 5703 5704 5705 5706 5707 5709 5710 5712 5714 5715 5717 5718 5719 5720 5721 5722 5723 5724 5725 5726 5726 5727 5727 5728 5729 5730 5730 5731 5731 5732
5698 5696 5695 5693 5690 5689 5690 5687 5691 5690 5689 5688 5688 5688 5688 5689 5690 5691 5692 5693 5694 5695 5696 5697 5699 5701 5702 5704 5706 5707 5709 5710 5711 5713 5714 5715 5716 5716 5717 5718 5718 5719 5719 5720 5720 5721 5722 5723 5723
5688 5686 5684 5682 5680 5679 5680 5678 5678 5678 5678 5678 5678 5677 5677 5678 5679 5680 5681 5682 5683 5684 5686 5688 5689 5691 5693 5694 5696 5698 5699 5701 5702 5703 5705 5706 5707 5707 5708 5709 5709 5710 5710 5711 5711 5712 5713 5713 5714
5678 5676 5673 5670 5669 5668 5668 5666 5667 5667 5667 5667 5667 5667 5667 5667 5668 5669 5670 5671 5672 5674 5676 5678 5679 5681 5683 5685 5686 5688 5689 5691 5692 5694 5695 5696 5697 5698 5699 5699 5700 5700 5701 5701 5702 5703 5703 5704 5704
5667 5665 5663 5660 5658 5657 5657 5655 5658 5657 5656 5655 5655 5655 5656 5657 5657 5658 5659 5660 5662 5663 5665 5667 5669 5671 5673 5675 5676 5678 5679 5681 5682 5684 5685 5686 5687 5688 5689 5690 5690 5691 5691 5692 5692 5693 5694 5694 5695
5656 5654 5652 5650 5647 5645 5645 5644 5646 5645 5644 5644 5644 5645 5645 5646 5647 5648 5649 5650 5651 5653 5655 5656 5659 5661 5663 5664 5666 5668 5669 5671 5672 5673 5675 5676 5677 5678 5679 5680 5681 5681 5681 5682 5683 5683 5684 5685 5685
5645 5643 5641 5639 5636 5634 5634 5634 5634 5634 5633 5633 5633 5634 5634 5635 5636 5637 5638 5639 5641 5642 5644 5646 5648 5650 5652 5654 5655 5657 5659 5660 5662 5663 5665 5666 5667 5668 5669 5670 5670 5671 5671 5672 5673 5673 5674 5675 5676
5634 5632 5630 5628 5626 5625 5623 5625 5624 5623 5622 5622 5623 5623 5623 5624 5625 5626 5627 5628 5630 5631 5633 5635 5636 5638 5640 5642 5644 5646 5648 5649 5651 5652 5654 5655 5656 5657 5658 5659 5660 5660 5661 5662 5663 5663 5664 5665 5666
5622 5621 5620 5618 5616 5614 5613 5616 5614 5612 5611 5611 5612 5612 5612 5613 5614 5615 5616 5617 5619 5620 5622 5623 5625 5627 5629 5631 5633 5635 5637 5638 5640 5641 5643 5644 5645 5646 5647 5648 5649 5650 5650 5651 5652 5653 5654 5655 5655
Wind_Speed
14 14 15 15 16 17 17 16 17 17 17 17 17 17 17 17 17 17 17 17 17 17 17 17 17 17 17 16 16 15 15 15 15 14 14 14 14 14 14 14 13 13 13 13 13 13 13 12 12
15 15 15 16 16 16 16 16 17 18 18 18 18 18 18 18 18 18 18 18 18 18 18 18 17 17 18 18 17 17 17 17 16 16 16 15 15 15 15 15 15 15 15 14 14 14 14 14 14
16 16 16 17 17 16 16 16 17 18 18 19 19 19 19 19 19 19 19 20 20 19 19 19 19 18 18 19 18 18 18 18 18 17 17 17 17 17 16 16 16 16 16 16 16 15 15 16 16
16 17 17 18 17 17 17 17 17 18 19 20 20 20 20 20 20 20 20 21 21 20 20 20 19 19 19 19 19 19 18 19 19 19 19 19 18 18 18 18 17 17 17 17 17 17 16 16 17
16 17 18 18 18 17 17 18 18 19 19 20 21 21 21 21 21 21 21 21 21 20 20 20 20 20 19 19 19 19 19 20 20 20 20 20 19 20 20 19 19 18 18 18 19 18 17 17 18
16 17 18 18 18 18 18 18 19 20 20 21 21 21 22 22 22 22 21 21 20 20 20 20 20 20 20 20 20 20 20 20 21 21 21 21 21 21 21 21 21 20 20 19 19 20 19 19 19
17 17 18 19 19 19 19 20 20 20 21 21 22 22 22 23 23 22 22 21 21 20 20 20 21 21 20 21 21 21 21 21 22 22 22 22 22 22 22 22 22 21 21 21 21 21 21 21 20
18 19 19 19 20 20 20 21 21 21 22 22 22 22 23 23 23 23 23 22 22 21 20 21 21 21 21 22 22 22 23 23 23 23 23 23 24 23 23 23 23 23 23 22 22 22 22 22 22
19 19 19 20 20 21 21 21 22 22 22 23 23 23 23 24 24 24 23 23 23 22 22 22 22 22 22 22 23 23 23 23 24 24 24 24 24 24 24 24 24 24 24 24 24 24 24 24 23
20 20 20 21 21 22 22 22 22 23 23 24 24 24 25 25 25 25 24 24 24 24 23 23 23 23 23 23 23 24 24 24 24 24 24 24 25 25 24 25 25 25 25 25 25 25 25 26 25
21 21 22 22 23 23 23 23 23 24 24 25 25 25 25 25 25 25 25 25 25 25 24 25 25 24 24 24 24 24 24 25 25 25 25 25 25 25 25 25 25 25 26 26 26 27 26 27 27
22 22 23 23 24 25 25 25 25 25 25 26 26 26 26 26 26 26 26 26 26 26 26 26 26 26 26 26 25 25 25 25 26 26 26 26 26 26 26 26 26 26 26 27 27 27 28 27 28
23 23 24 24 25 26 26 26 26 26 26 27 27 26 26 26 26 26 27 27 27 27 27 27 27 27 27 27 27 27 26 26 26 26 26 26 26 26 26 27 27 27 27 27 27 28 29 29 29
24 25 25 26 26 26 27 27 27 27 27 27 27 27 27 26 27 27 27 27 27 27 27 28 28 28 28 28 28 28 28 27 27 27 27 26 26 26 27 27 28 28 27 27 27 28 29 30 29
26 26 27 27 28 28 28 28 28 28 28 28 28 28 27 27 28 28 28 28 28 28 28 28 28 28 29 29 29 29 29 27 27 28 28 27 27 27 27 27 28 29 28 28 28 28 29 29 29
28 28 29 29 29 29 30 29 29 30 30 29 29 28 28 28 29 29 29 30 29 29 29 29 29 29 29 29 30 29 29 29 28 28 28 29 29 28 29 28 28 29 29 28 28 28 29 30 30
30 30 31 31 31 31 32 31 31 31 31 30 30 29 29 30 30 30 30 30 30 30 30 30 30 29 29 29 30 30 30 30 29 29 29 29 30 29 29 30 29 29 29 29 29 29 29 30 30
32 32 32 33 33 33 32 32 32 32 32 32 31 31 31 31 31 31 31 32 32 31 31 31 31 30 30 30 30 30 30 30 30 30 30 30 30 30 30 30 30 31 30 30 30 30 30 30 30
34 34 34 34 34 34 33 33 33 34 34 33 33 33 33 32 32 32 33 33 33 32 33 33 32 31 31 31 31 30 30 31 31 30 30 30 30 31 31 31 31 31 31 31 31 31 31 32 32
35 36 36 36 36 36 35 34 34 35 34 34 34 33 33 33 33 34 34 34 33 33 33 34 33 33 33 32 32 32 31 31 31 31 31 31 31 31 31 31 32 32 32 32 32 32 32 31 32
36 37 37 37 37 37 37 36 35 35 35 35 35 35 34 34 34 34 34 34 34 34 34 34 34 34 34 34 34 34 33 33 32 32 32 32 32 31 31 32 32 33 33 33 33 33 33 33 33
36 36 37 38 38 38 37 38 34 35 35 35 36 35 35 35 34 34 34 34 34 35 35 35 35 35 35 35 35 35 34 34 34 33 33 32 32 31 32 32 33 33 33 34 34 34 34 34 34
36 36 37 37 38 39 37 39 36 35 35 35 36 36 36 35 35 35 35 35 35 35 35 35 35 35 35 36 36 35 35 35 35 35 34 34 33 33 33 33 33 33 34 34 34 35 34 34 34
36 36 37 38 38 39 37 38 37 35 35 35 35 35 35 35 36 36 36 36 36 36 36 36 36 36 36 36 36 36 36 36 36 35 35 35 35 35 35 35 34 34 34 35 35 35 35 35 35
37 37 38 39 39 39 37 37 36 35 35 35 35 35 35 35 35 36 36 36 36 36 36 36 36 36 37 37 37 37 37 37 37 37 36 36 36 36 36 36 35 35 36 36 36 36 36 36 36
38 37 37 39 40 39 38 37 35 34 34 35 35 35 35 35 35 35 35 36 36 36 37 37 37 37 37 38 38 37 37 37 37 37 37 37 37 37 37 37 37 36 37 37 37 37 37 37 36
38 38 37 38 39 39 39 38 36 34 33 34 34 35 35 35 36 35 36 36 36 36 37 37 38 38 38 38 39 38 38 38 37 37 38 38 38 38 37 37 37 37 37 37 37 37 37 37 37
38 37 36 36 37 39 38 37 36 33 33 33 33 34 34 35 35 36 36 36 36 36 37 38 38 39 39 39 39 39 39 38 38 39 39 39 39 39 39 39 38 38 38 38 38 37 37 37 37
37 36 36 36 37 38 38 37 36 35 35 34 33 34 34 34 35 36 36 37 37 37 38 38 39 39 40 40 40 40 39 39 39 39 39 39 40 40 40 40 39 39 38 38 38 38 38 38 37
37 36 35 36 36 37 38 38 36 36 35 35 34 34 34 35 35 37 37 37 38 38 38 38 39 39 40 40 40 40 40 40 39 39 39 39 39 40 40 40 40 39 39 39 38 38 39 39 39
Wind_Direction
256 257 258 259 259 259 260 259 256 254 253 254 255 256 255 255 255 258 259 260 260 259 258 256 256 254 253 252 251 250 250 249 248 248 246 245 243 243 241 239 239 239 240 240 239 238 237 234 234
256 257 258 259 260 262 261 259 256 254 254 254 256 257 256 257 258 258 259 260 261 260 259 257 257 256 254 253 253 253 252 250 249 247 247 246 245 245 244 243 242 242 244 243 242 241 241 237 237
258 258 259 259 261 263 263 260 257 255 255 256 258 258 258 259 260 259 260 260 261 261 260 259 258 257 256 255 255 253 252 251 250 249 248 247 247 246 246 246 245 244 246 245 245 244 244 242 238
259 259 259 260 261 263 263 261 259 257 256 257 258 259 259 259 259 260 260 260 261 260 260 259 258 256 255 255 254 253 252 252 251 250 249 248 248 247 246 246 245 245 246 247 246 246 246 244 241
261 260 261 261 262 263 263 262 261 260 258 258 258 258 258 258 259 260 260 261 261 259 259 258 257 255 254 255 255 253 252 252 252 250 249 248 250 249 247 245 245 245 246 247 247 247 246 245 244
265 263 262 263 263 263 264 265 265 263 261 259 258 258 258 258 259 259 260 260 260 259 258 258 257 256 256 256 255 254 253 252 252 251 250 250 250 250 248 247 246 247 248 248 248 247 247 245 246
267 266 264 264 264 266 267 266 266 264 263 261 259 258 258 259 259 260 260 260 258 257 257 258 258 256 255 255 255 254 254 253 252 252 251 250 250 250 250 249 249 249 250 250 249 249 249 248 247
268 266 265 265 266 268 268 266 266 264 262 262 261 260 259 259 259 259 259 259 258 258 258 257 257 257 257 257 256 254 254 254 253 253 252 252 252 251 251 251 250 251 252 252 251 250 252 250 249
269 268 267 266 266 267 267 265 265 264 262 262 262 261 260 259 258 258 258 258 257 257 258 259 258 257 257 257 256 255 255 254 254 254 253 252 252 252 252 251 250 251 251 252 252 252 252 253 252
271 269 268 267 267 267 266 266 265 264 263 262 262 261 259 259 258 258 258 258 258 257 258 258 258 258 258 257 257 256 255 254 255 254 253 253 253 253 254 253 251 251 251 251 252 252 252 253 253
273 271 269 268 268 268 267 266 266 265 264 263 263 261 260 259 258 258 258 259 258 258 257 257 258 259 259 258 258 256 255 255 255 255 254 255 255 254 254 254 252 251 251 251 252 253 252 253 254
273 273 271 270 269 269 268 267 266 265 264 263 263 261 261 260 259 259 259 259 258 258 259 259 259 259 258 257 257 256 255 256 255 253 254 255 255 254 254 253 253 252 252 253 252 253 251 253 254
275 273 273 271 271 270 269 268 266 266 266 264 264 263 262 260 259 258 258 259 259 259 259 260 259 258 257 256 257 256 256 256 255 255 255 255 254 253 253 252 252 252 253 254 254 252 252 254 254
276 274 273 272 272 272 270 268 267 266 266 265 265 264 263 261 260 260 259 259 259 259 259 260 259 257 255 255 256 256 256 255 254 256 255 255 255 255 254 253 252 251 253 255 255 254 254 255 255
276 275 274 273 273 272 270 268 267 266 266 266 265 264 263 262 261 261 260 260 259 259 259 259 258 257 255 255 256 256 255 255 254 255 255 255 256 257 256 254 252 252 253 255 256 253 253 254 255
277 276 276 275 274 272 271 269 268 267 267 266 265 264 263 262 262 261 261 260 260 260 259 258 257 257 256 255 256 256 255 254 255 255 256 256 256 257 256 256 255 254 254 255 256 255 254 254 255
278 278 277 276 274 273 271 269 267 267 266 265 265 264 263 263 262 261 260 260 259 259 259 258 257 256 256 256 256 256 255 255 256 255 256 257 257 257 257 256 256 257 256 256 256 256 256 255 256
280 279 278 277 275 273 271 269 267 266 265 265 265 264 264 263 262 261 260 260 259 258 258 257 256 255 255 255 256 256 255 255 257 257 257 257 257 257 256 256 255 256 256 255 255 256 256 257 258
280 279 278 277 275 273 272 269 267 266 265 265 265 265 264 262 261 260 260 259 258 257 257 256 255 254 255 255 255 255 255 255 257 256 256 256 257 258 257 256 255 255 256 256 257 258 257 258 259
280 279 278 276 275 274 273 271 269 267 266 265 264 264 263 262 261 260 259 258 257 256 255 255 255 254 254 254 254 255 255 255 256 257 258 258 259 259 259 257 257 257 257 258 259 259 260 261 261
279 279 278 276 275 274 274 271 269 268 266 265 264 263 262 261 260 259 259 258 257 256 255 254 254 254 254 254 254 255 255 256 257 258 259 259 259 259 259 259 258 258 260 260 260 261 262 262 263
279 279 278 277 276 275 274 273 268 268 267 265 264 263 262 261 261 259 259 258 257 256 255 255 253 253 253 254 255 255 255 255 257 258 258 259 260 260 260 260 260 260 260 260 260 260 262 262 262
281 279 278 278 277 276 275 274 270 268 267 265 264 263 262 261 260 259 259 258 257 255 255 255 254 253 253 254 255 255 255 255 256 257 258 259 260 260 260 260 261 261 261 261 261 261 262 262 262
282 280 279 278 277 276 276 275 272 269 267 265 263 263 262 261 260 258 258 257 256 254 254 254 254 254 253 254 255 255 255 255 255 256 257 258 260 260 260 260 261 262 262 262 261 261 263 263 262
282 282 281 280 278 277 276 275 274 270 267 265 263 262 261 261 259 258 258 257 256 254 253 253 253 254 254 254 254 255 255 255 256 256 257 258 259 259 260 260 261 261 261 261 261 261 262 263 263
282 281 280 280 280 278 276 274 274 272 268 265 263 261 260 260 259 258 257 257 256 254 253 252 252 253 254 254 254 254 255 255 256 256 257 257 258 259 260 261 261 261 261 261 262 261 262 263 264
282 279 278 278 279 279 277 275 273 271 269 266 263 262 262 260 259 258 257 256 255 254 252 251 251 252 253 253 253 253 254 255 256 256 256 257 258 259 260 262 261 262 262 261 261 261 261 262 264
282 279 277 276 278 278 277 276 273 271 269 268 266 263 262 261 260 258 257 256 255 254 253 252 252 252 253 253 254 254 254 254 256 256 257 258 259 260 261 261 262 262 262 261 260 261 261 262 264
281 278 275 274 275 276 277 276 274 273 271 269 266 264 262 261 260 257 256 255 254 254 254 253 253 253 254 254 254 254 254 254 256 257 258 258 259 259 260 261 261 262 261 260 260 261 262 263 264
280 278 276 274 274 274 276 276 274 272 271 269 266 264 263 261 260 257 256 255 254 253 253 253 254 253 254 254 254 254 254 254 255 256 258 259 260 260 261 262 261 262 261 260 261 262 262 263 264